Total_Precipitation_Accumulation
0.11 0.11 0.11 0.12 0.12 0.13 0.14 0.16 0.17 0.16 0.16 0.16 0.17 0.18 0.21 0.23 0.21 0.17 0.14 0.12 0.08 0.08 0.14 0.29 0.54 0.79 0.99 1.10 1.11 0.97 0.89 0.76 0.59 0.50 0.47 0.54 0.57 0.56 0.59 0.69 0.65 0.54 0.50
0.03 0.03 0.03 0.02 0.02 0.02 0.02 0.03 0.04 0.05 0.06 0.08 0.09 0.11 0.13 0.16 0.18 0.19 0.19 0.21 0.16 0.13 0.14 0.20 0.33 0.56 0.86 1.09 1.19 1.16 1.03 0.94 0.77 0.60 0.52 0.51 0.57 0.56 0.56 0.61 0.69 0.65 0.53
0.01 0.01 0.01 0.01 0.00 0.00 0.00 0.00 0.00 0.01 0.01 0.02 0.03 0.05 0.07 0.08 0.12 0.15 0.18 0.22 0.23 0.20 0.17 0.20 0.27 0.42 0.71 1.01 1.19 1.32 1.23 1.09 0.98 0.84 0.64 0.52 0.54 0.58 0.56 0.58 0.64 0.71 0.67
0.00 0.00 0.00 0.00 0.00 0.00 0.01 0.01 0.01 0.00 0.01 0.01 0.02 0.03 0.05 0.06 0.06 0.09 0.14 0.16 0.19 0.21 0.20 0.20 0.28 0.42 0.59 0.85 1.12 1.38 1.48 1.32 1.22 1.16 0.97 0.73 0.57 0.58 0.59 0.57 0.62 0.70 0.77
0.00 0.00 0.00 0.00 0.00 0.01 0.01 0.02 0.02 0.01 0.01 0.01 0.02 0.02 0.02 0.04 0.05 0.08 0.11 0.14 0.17 0.18 0.20 0.21 0.25 0.34 0.47 0.70 1.04 1.38 1.72 1.75 1.57 1.44 1.28 1.08 0.84 0.66 0.64 0.60 0.62 0.70 0.78
0.00 0.00 0.00 0.00 0.00 0.00 0.00 0.01 0.01 0.01 0.02 0.01 0.02 0.01 0.00 0.01 0.02 0.05 0.07 0.12 0.16 0.17 0.19 0.24 0.27 0.25 0.27 0.39 0.63 1.01 1.38 1.72 1.80 1.70 1.59 1.40 1.18 0.94 0.78 0.70 0.67 0.73 0.83
0.00 0.00 0.00 0.00 0.00 0.01 0.01 0.01 0.02 0.02 0.02 0.02 0.02 0.01 0.00 0.00 0.01 0.02 0.07 0.12 0.17 0.23 0.29 0.34 0.40 0.38 0.30 0.29 0.32 0.46 0.80 1.29 1.66 1.83 1.82 1.76 1.52 1.25 1.02 0.85 0.79 0.81 0.87
0.00 0.00 0.00 0.00 0.00 0.00 0.00 0.01 0.02 0.04 0.04 0.03 0.06 0.11 0.05 0.01 0.00 0.01 0.04 0.09 0.17 0.27 0.39 0.44 0.49 0.50 0.46 0.36 0.25 0.25 0.37 0.73 1.27 1.74 1.89 1.90 1.93 1.70 1.32 1.07 0.93 0.92 0.96
0.00 0.00 0.00 0.00 0.00 0.01 0.01 0.01 0.02 0.04 0.06 0.04 0.07 0.24 0.31 0.16 0.05 0.00 0.01 0.04 0.08 0.12 0.20 0.29 0.36 0.41 0.47 0.48 0.39 0.30 0.28 0.43 0.79 1.40 1.90 2.00 2.02 2.09 1.84 1.39 1.11 1.00 1.01
0.00 0.00 0.00 0.00 0.00 0.01 0.01 0.02 0.03 0.05 0.10 0.12 0.08 0.12 0.22 0.27 0.29 0.13 0.01 0.02 0.02 0.04 0.06 0.10 0.16 0.23 0.34 0.44 0.48 0.43 0.36 0.37 0.57 0.94 1.57 2.10 2.14 2.21 2.28 1.92 1.46 1.18 1.08
0.00 0.00 0.00 0.00 0.00 0.01 0.02 0.03 0.04 0.06 0.12 0.17 0.17 0.15 0.14 0.13 0.19 0.28 0.12 0.02 0.03 0.03 0.03 0.05 0.07 0.10 0.16 0.27 0.36 0.43 0.45 0.40 0.50 0.71 1.06 1.71 2.28 2.43 2.51 2.35 1.87 1.42 1.16
0.00 0.00 0.00 0.00 0.01 0.01 0.03 0.04 0.06 0.09 0.11 0.15 0.18 0.20 0.24 0.26 0.20 0.26 0.22 0.07 0.03 0.03 0.04 0.05 0.06 0.07 0.10 0.16 0.23 0.35 0.43 0.44 0.45 0.56 0.69 1.06 1.80 2.45 2.65 2.53 2.19 1.76 1.36
0.01 0.00 0.01 0.01 0.01 0.03 0.04 0.07 0.10 0.11 0.12 0.16 0.19 0.21 0.22 0.22 0.21 0.26 0.29 0.17 0.07 0.02 0.03 0.05 0.06 0.09 0.11 0.14 0.18 0.25 0.32 0.39 0.45 0.50 0.51 0.57 0.94 1.77 2.54 2.76 2.48 2.09 1.72
0.01 0.01 0.01 0.01 0.02 0.04 0.07 0.10 0.13 0.14 0.16 0.19 0.19 0.21 0.22 0.19 0.21 0.26 0.32 0.36 0.28 0.09 0.03 0.04 0.05 0.08 0.11 0.13 0.15 0.19 0.20 0.26 0.35 0.41 0.44 0.45 0.53 0.88 1.65 2.56 3.08 2.74 2.19
0.01 0.01 0.01 0.02 0.04 0.07 0.10 0.12 0.15 0.17 0.20 0.22 0.23 0.24 0.26 0.24 0.25 0.26 0.28 0.38 0.53 0.37 0.10 0.03 0.05 0.06 0.09 0.13 0.17 0.17 0.17 0.20 0.27 0.34 0.37 0.40 0.45 0.54 0.85 1.51 2.46 3.13 2.99
0.01 0.01 0.03 0.05 0.09 0.14 0.17 0.18 0.19 0.20 0.24 0.26 0.28 0.30 0.31 0.31 0.31 0.30 0.32 0.32 0.40 0.48 0.29 0.05 0.06 0.07 0.09 0.12 0.17 0.18 0.19 0.20 0.22 0.27 0.32 0.34 0.38 0.46 0.60 0.90 1.48 2.39 2.97
0.02 0.03 0.06 0.09 0.14 0.20 0.24 0.27 0.28 0.30 0.31 0.28 0.30 0.34 0.35 0.35 0.35 0.33 0.34 0.35 0.34 0.40 0.39 0.10 0.04 0.07 0.13 0.16 0.18 0.18 0.19 0.18 0.16 0.19 0.26 0.32 0.36 0.42 0.53 0.70 0.95 1.52 2.37
0.05 0.07 0.11 0.16 0.20 0.24 0.27 0.36 0.42 0.44 0.47 0.46 0.44 0.43 0.44 0.45 0.47 0.45 0.45 0.41 0.36 0.34 0.39 0.25 0.07 0.06 0.13 0.20 0.26 0.25 0.22 0.18 0.15 0.16 0.20 0.27 0.32 0.37 0.47 0.58 0.73 1.00 1.57
0.09 0.14 0.21 0.29 0.34 0.36 0.37 0.38 0.49 0.63 0.70 0.72 0.72 0.71 0.68 0.65 0.66 0.64 0.62 0.55 0.44 0.35 0.34 0.32 0.17 0.09 0.13 0.23 0.33 0.34 0.29 0.22 0.16 0.17 0.19 0.23 0.28 0.32 0.37 0.46 0.58 0.73 0.99
0.19 0.27 0.34 0.45 0.52 0.60 0.73 0.73 0.72 0.67 0.68 0.77 0.82 0.85 0.91 0.93 0.93 0.89 0.87 0.71 0.56 0.47 0.40 0.38 0.28 0.18 0.16 0.23 0.40 0.45 0.41 0.32 0.22 0.17 0.19 0.20 0.25 0.30 0.31 0.32 0.36 0.49 0.73
0.26 0.34 0.39 0.40 0.43 0.65 1.11 1.27 0.99 0.63 0.52 0.54 0.58 0.61 0.72 0.89 1.01 1.08 1.11 0.97 0.81 0.74 0.61 0.51 0.40 0.30 0.24 0.30 0.45 0.51 0.55 0.49 0.41 0.31 0.24 0.20 0.20 0.22 0.24 0.27 0.34 0.42 0.57
0.19 0.29 0.35 0.33 0.32 0.53 0.98 1.13 0.75 0.44 0.37 0.36 0.37 0.38 0.42 0.58 0.69 0.79 0.92 0.96 1.00 1.04 0.94 0.75 0.57 0.44 0.34 0.34 0.43 0.58 0.62 0.65 0.62 0.48 0.40 0.33 0.28 0.26 0.24 0.23 0.28 0.34 0.45
0.12 0.17 0.19 0.17 0.20 0.39 0.76 0.87 0.54 0.27 0.20 0.19 0.20 0.21 0.22 0.31 0.43 0.48 0.56 0.66 0.80 0.93 1.02 0.97 0.87 0.66 0.48 0.41 0.47 0.57 0.64 0.69 0.66 0.62 0.61 0.60 0.52 0.41 0.34 0.33 0.36 0.35 0.39
0.10 0.12 0.11 0.07 0.07 0.20 0.57 0.75 0.47 0.20 0.13 0.13 0.15 0.14 0.12 0.17 0.32 0.42 0.52 0.52 0.54 0.69 0.92 1.06 1.14 0.97 0.72 0.59 0.66 0.74 0.80 0.77 0.73 0.80 0.84 0.83 0.71 0.58 0.53 0.49 0.46 0.39 0.37
0.08 0.10 0.09 0.05 0.03 0.08 0.40 0.73 0.54 0.20 0.12 0.11 0.13 0.14 0.12 0.11 0.26 0.37 0.39 0.35 0.32 0.44 0.58 0.78 0.93 0.91 0.80 0.74 0.78 0.91 0.93 0.93 0.95 1.00 1.04 1.04 0.95 0.76 0.71 0.71 0.65 0.52 0.42
0.04 0.05 0.06 0.04 0.02 0.03 0.22 0.65 0.69 0.28 0.15 0.10 0.09 0.10 0.16 0.19 0.26 0.27 0.26 0.27 0.30 0.33 0.33 0.38 0.44 0.53 0.58 0.59 0.70 0.88 0.97 0.98 1.02 1.19 1.19 1.10 1.15 1.03 1.01 0.93 0.76 0.55 0.44